Skip Page Navigation
NASA JPL Caltech
NASA Logo - Jet Propulsion Laboratory + View the NASA Portal
+ Center for Near-Earth Object Studies
JPL Home Earth Solar System Stars & Galaxies Technology
JPL Solar System Dynamics
BODIES ORBITS EPHEMERIDES TOOLS PHYSICAL DATA DISCOVERY FAQ SITE MAP
IMPORTANT: The SSD Announcement email list is now available. Major changes are coming in the near future, including possible hostname and/or URL changes. To be notified of such changes, subscribe to this email list.

Please visit this page for more details.


JPL Small-Body Database Browser
Search: [ help ]  
34736 (2001 QG69)
Classification: Main-belt Asteroid          SPK-ID: 2034736
Ephemeris | Orbit Diagram | Orbital Elements | Mission Design | Physical Parameters | Discovery Circumstances | Close-Approach Data ]

[ show orbit diagram ]
Orbital Elements at Epoch 2459000.5 (2020-May-31.0) TDB
Reference: JPL 29 (heliocentric ecliptic J2000)
 Element Value Uncertainty (1-sigma)   Units 
e .1485052853486108 3.4222e-08  
a 3.160251691680974 2.0438e-08 au
q 2.69093761243446 1.1027e-07 au
i 10.8257196235584 4.8307e-06 deg
node 225.5198376157062 2.5051e-05 deg
peri 217.1444935205984 3.1727e-05 deg
M 40.28675165755051 1.8355e-05 deg
tp 2458770.863623059866
(2019-Oct-14.36362306)
0.00010432 TDB
period 2052.016911196031
5.62
1.9906e-05
5.45e-08
d
yr
n .1754371506568977 1.7019e-09 deg/d
Q 3.629565770927487 2.3473e-08 au
  Orbit Determination Parameters
   # obs. used (total)      1387  
   data-arc span      17007 days (46.56 yr)  
   first obs. used      1973-09-29  
   last obs. used      2020-04-22  
   planetary ephem.      DE431  
   SB-pert. ephem.      SB431-N16  
   condition code      0  
   norm. resid. RMS      .48185  
   source      ORB  
   producer      Otto Matic  
   solution date      2020-May-20 07:51:40  

Additional Information
 Earth MOID = 1.71545 au 
 Jupiter MOID = 1.71928 au 
 T_jup = 3.160 
[ show covariance matrix ]

Ephemeris | Orbit Diagram | Orbital Elements | Mission Design | Physical Parameters | Discovery Circumstances | Close-Approach Data ]

Physical Parameter Table
Parameter Symbol Value Units Sigma Reference Notes
absolute magnitude H 13.6   n/a MPO502411  
diameter diameter 5.474 km 1.097 urn:nasa:pds:neowise_diameters_albedos::2.0[mainbelt] (http://adsabs.harvard.edu/abs/2011ApJ...741...68M)  
geometric albedo albedo 0.257   0.044 urn:nasa:pds:neowise_diameters_albedos::2.0[mainbelt] (http://adsabs.harvard.edu/abs/2011ApJ...741...68M)  

34736 (2001 QG69)          Discovered 2001-Aug-17 by LINEAR at Socorro
Reference: 20020128/Numbers.arcLast Updated: 2004-04-19

[ show close-approach data ]
Alternate Designations
 2001 QG69 = 1999 JY124 = 5474 T-2 
Ephemeris | Orbit Diagram | Orbital Elements | Mission Design | Physical Parameters | Discovery Circumstances | Close-Approach Data ]
ABOUT SSD CREDITS/AWARDS PRIVACY/COPYRIGHT GLOSSARY LINKS
FirstGov 2020-Jun-07 00:59 UT
(server date/time)  
NASA Home Page
Site Manager:   Ryan S. Park
Webmaster  Alan B. Chamberlin